Date,TemperatureHighF,TemperatureAvgF,TemperatureLowF,DewpointHighF,DewpointAvgF,DewpointLowF,HumidityHigh,HumidityAvg,HumidityLow,PressureMaxIn,PressureMinIn,WindSpeedMaxMPH,WindSpeedAvgMPH,GustSpeedMaxMPH,PrecipitationSumIn
2013-1-1,37.2,31.4,24.3,37.2,31.4,24.3,100,100,100,30.24,30.01,15,2,15,0.00
2013-1-2,34.2,26.0,19.9,33.3,21.7,16.1,100,86,57,30.24,30.15,12,2,13,0.00
2013-1-3,43.5,30.8,18.5,37.7,23.1,17.1,100,75,48,30.42,30.24,10,2,14,0.00
2013-1-4,47.1,33.5,19.9,32.7,22.1,16.2,100,66,40,30.45,30.30,16,4,17,0.00
2013-1-5,42.4,35.4,25.9,32.9,28.1,18.1,95,75,66,30.30,30.15,22,5,23,0.00
2013-1-6,47.1,33.2,22.8,31.3,23.3,13.9,100,71,37,30.36,30.21,15,3,16,0.00
2013-1-7,52.0,36.7,21.9,29.2,22.8,14.9,90,60,37,30.33,30.12,20,4,21,0.00
2013-1-8,57.9,42.2,27.9,47.5,32.8,19.8,100,71,48,30.21,30.03,16,3,19,0.18
2013-1-9,54.3,50.0,46.4,50.7,44.3,36.7,100,83,55,30.33,30.21,22,7,30,0.08
2013-1-10,57.6,50.4,45.7,57.6,49.5,38.6,100,97,63,30.21,29.83,27,9,28,0.04
2013-1-11,66.2,55.5,44.4,49.4,44.9,41.4,100,71,44,29.89,29.77,30,9,32,0.00
2013-1-12,58.3,43.7,29.3,52.4,38.2,29.1,100,83,44,29.95,29.80,31,8,33,0.36
2013-1-13,29.1,22.8,16.0,29.1,19.1,13.5,100,86,69,30.33,29.95,12,9,17,0.00
2013-1-14,35.1,22.7,13.3,21.4,13.7,8.9,99,71,42,30.42,30.30,19,7,20,0.00
2013-1-15,34.9,25.1,15.4,19.8,16.1,11.6,94,70,45,30.30,30.12,16,4,17,0.00
2013-1-16,42.6,27.6,14.9,26.1,17.2,13.1,100,68,41,30.18,30.09,19,3,20,0.00
2013-1-17,49.1,34.1,23.2,32.9,23.0,14.8,84,65,42,30.48,30.18,19,3,20,0.00
2013-1-18,56.3,40.4,23.2,33.3,26.3,20.1,100,61,34,30.48,30.18,24,6,26,0.00
2013-1-19,62.8,48.0,35.8,35.8,30.4,24.5,81,52,34,30.21,30.09,23,7,26,0.00
2013-1-20,61.3,44.2,28.6,35.9,28.2,15.8,88,56,34,30.27,30.12,22,5,23,0.00
2013-1-21,39.9,29.3,21.4,17.9,14.5,11.8,67,54,40,30.36,30.24,14,7,20,0.00
2013-1-22,47.3,32.9,21.4,27.1,19.0,11.8,71,57,42,30.30,30.18,16,4,17,0.00
2013-1-23,61.7,42.6,25.9,43.0,32.6,17.9,94,69,46,30.27,30.12,19,4,20,0.00
2013-1-24,43.7,38.3,33.3,33.1,21.2,16.7,66,50,42,30.30,30.09,22,8,23,0.00
2013-1-25,50.5,38.2,30.2,38.6,29.9,23.0,100,75,48,30.24,30.09,14,2,14,0.00
2013-1-26,61.9,46.4,34.0,31.2,25.8,20.3,79,48,25,30.24,30.12,19,6,20,0.00
2013-1-27,59.5,53.9,46.9,59.0,49.5,29.7,100,86,50,30.12,29.95,26,9,27,0.00
2013-1-28,72.0,66.4,59.0,64.4,61.9,58.5,100,86,63,30.01,29.86,34,12,35,0.00
2013-1-29,68.4,60.3,46.6,66.0,58.6,46.4,100,94,83,29.86,29.50,32,9,33,1.85
2013-1-30,46.6,32.2,22.1,46.6,28.3,17.0,100,86,70,30.03,29.53,32,12,34,0.04
2013-1-31,47.8,27.1,18.7,29.6,20.3,7.4,99,77,46,30.42,30.00,24,5,26,0.00
2013-2-1,45.7,26.6,12.2,20.9,11.0,3.9,73,53,37,30.42,30.15,16,5,17,0.00
2013-2-2,54.3,38.5,22.8,30.8,24.2,13.1,75,57,38,30.24,30.15,23,5,24,0.00
2013-2-3,53.8,44.3,32.0,33.1,24.8,18.8,81,48,34,30.27,29.98,19,4,20,0.00
2013-2-4,60.6,49.5,35.8,45.4,35.5,23.8,88,60,41,29.98,29.83,55,6,57,0.14
2013-2-5,65.7,45.6,28.9,53.8,33.6,26.6,100,69,30,30.06,29.92,20,3,21,0.00
2013-2-6,64.6,51.2,35.2,40.7,35.2,27.9,84,56,37,30.12,29.98,19,6,20,0.00
2013-2-7,56.8,51.4,42.4,56.1,50.1,39.1,100,95,74,30.09,29.86,22,6,23,0.02
2013-2-8,53.4,41.9,32.9,39.9,32.2,27.7,95,71,44,30.27,30.09,21,6,22,0.00
2013-2-9,48.4,40.7,33.6,45.1,33.8,26.9,100,79,44,30.21,29.86,58,8,61,0.07
2013-2-10,60.6,52.3,40.1,55.2,38.2,23.5,100,65,33,30.06,29.65,35,13,36,0.24
2013-2-11,55.2,39.8,28.4,29.2,23.2,17.2,83,53,33,30.18,30.03,15,2,16,0.00
2013-2-12,46.0,37.8,28.6,36.3,28.4,21.7,100,70,50,30.15,29.92,14,4,15,0.06
2013-2-13,51.1,39.3,33.1,42.1,32.9,27.6,100,81,48,30.01,29.95,22,7,23,0.08
2013-2-14,57.2,45.3,33.6,34.3,30.6,27.5,86,58,40,30.15,29.95,14,5,14,0.00
2013-2-15,44.2,34.6,21.7,27.3,16.6,7.1,69,48,38,30.30,30.15,20,4,21,0.00
2013-2-16,37.0,31.8,21.7,25.0,17.9,9.8,86,58,44,30.30,30.12,14,5,20,0.00
2013-2-17,63.1,48.6,31.6,33.0,25.2,13.7,53,41,32,30.12,29.83,26,8,27,0.00
2013-2-18,58.5,50.0,34.3,54.5,38.1,23.2,96,65,38,30.12,29.62,39,12,40,0.03
2013-2-19,46.0,34.1,21.6,23.9,18.3,12.3,75,53,38,30.30,30.12,27,4,28,0.00
2013-2-20,34.5,31.6,27.7,32.5,21.0,13.2,92,66,45,30.30,30.03,19,6,20,0.00
2013-2-21,36.1,32.8,28.8,36.1,31.7,24.6,100,96,81,30.06,29.68,29,5,30,0.39
2013-2-22,37.8,29.1,21.0,34.3,21.4,17.1,100,74,51,30.09,29.86,30,9,31,0.00
2013-2-23,45.3,31.1,18.9,27.0,20.9,16.6,99,69,42,30.09,29.95,16,2,17,0.00
2013-2-24,59.2,43.7,26.1,35.6,28.7,20.1,90,58,34,30.01,29.83,19,6,20,0.00
2013-2-25,41.7,39.1,35.8,41.0,33.7,27.4,100,82,58,29.89,29.44,156,10,163,0.21
2013-2-26,36.1,33.6,32.2,36.1,33.6,32.2,100,100,100,29.89,29.39,26,6,27,0.00
2013-2-27,39.4,34.1,31.8,35.4,30.4,25.0,100,87,65,30.06,29.86,32,10,33,0.04
2013-2-28,36.3,32.3,26.8,29.6,26.2,23.4,99,79,65,30.18,30.06,19,7,20,0.00
2013-3-1,32.7,29.5,26.1,25.4,20.8,16.6,87,70,59,30.24,30.15,22,6,23,0.00
2013-3-2,40.3,29.0,24.3,24.5,20.5,13.4,94,73,42,30.30,30.18,17,4,18,0.00
2013-3-3,57.9,42.6,23.0,30.9,24.9,15.3,78,52,34,30.18,29.80,22,6,23,0.00
2013-3-4,65.1,54.1,43.7,47.5,37.7,29.0,90,55,45,29.86,29.62,27,7,28,0.00
2013-3-5,44.6,38.4,31.6,37.0,25.5,17.4,100,62,41,30.30,29.86,41,11,43,0.01
2013-3-6,49.6,36.2,23.9,25.3,20.4,15.2,75,53,37,30.39,30.21,19,4,20,0.00
2013-3-7,63.7,49.8,36.9,31.4,26.8,22.0,59,42,28,30.27,30.12,18,6,19,0.00
2013-3-8,62.6,51.2,42.6,37.9,31.9,28.0,62,49,36,30.24,30.03,22,7,23,0.01
2013-3-9,68.0,58.9,52.9,58.8,46.1,34.0,100,65,44,30.06,29.71,27,8,28,1.43
2013-3-10,55.9,44.5,30.0,55.9,44.3,29.8,100,99,78,29.95,29.68,32,10,34,0.67
2013-3-11,44.8,33.7,27.1,30.0,24.9,18.7,100,73,42,30.03,29.89,30,11,31,0.00
2013-3-12,56.3,42.8,27.7,30.9,25.7,16.1,82,54,34,30.30,30.03,29,6,31,0.00
2013-3-13,53.8,38.9,26.4,26.2,19.6,14.9,73,47,32,30.45,30.30,15,3,16,0.00
2013-3-14,70.9,51.8,33.6,41.3,30.1,17.0,66,45,32,30.36,30.12,35,7,37,0.00
2013-3-15,78.6,63.9,46.9,48.9,42.6,39.0,86,49,28,30.12,29.80,32,10,34,0.00
2013-3-16,75.6,62.5,51.6,50.3,43.1,38.5,73,49,37,29.89,29.77,26,8,27,0.00
2013-3-17,51.4,44.2,40.8,44.1,41.4,37.0,100,91,62,29.89,29.68,21,8,22,0.04
2013-3-18,56.3,45.5,34.3,45.5,36.6,23.6,100,76,37,30.06,29.71,19,5,20,0.02
2013-3-19,57.0,44.1,33.3,30.4,25.3,21.5,82,50,29,30.24,30.03,19,5,20,0.00
2013-3-20,48.7,37.9,27.7,34.5,21.9,12.4,98,56,34,30.36,30.09,21,4,22,0.00
2013-3-21,43.5,35.3,32.5,35.1,24.1,13.9,100,68,37,30.09,29.80,21,8,22,0.23
2013-3-22,39.7,36.6,32.7,39.7,36.6,32.7,100,100,100,29.95,29.83,18,6,18,0.28
2013-3-23,40.6,38.2,36.1,40.6,38.2,36.1,100,100,100,29.92,29.71,16,6,17,0.00
2013-3-24,40.5,32.9,26.4,40.5,30.1,18.3,100,90,66,30.12,29.65,45,10,57,0.04
2013-3-25,34.3,28.4,23.2,23.9,20.0,16.9,84,71,54,30.33,30.06,28,10,29,0.00
2013-3-26,45.1,32.1,20.3,29.8,20.3,14.8,100,64,41,30.42,30.27,19,4,20,0.00
2013-3-27,59.9,44.7,27.0,29.6,25.1,17.4,74,49,29,30.30,30.12,20,5,21,0.00
2013-3-28,69.3,57.7,46.8,46.4,38.1,24.4,61,48,40,30.21,30.12,22,7,23,0.00
2013-3-29,68.0,59.1,52.2,59.0,52.2,45.0,100,79,57,30.21,30.09,18,4,18,0.31
2013-3-30,68.5,59.7,53.6,58.5,55.7,52.2,100,88,58,30.12,29.89,19,6,20,0.50
2013-3-31,69.6,57.8,46.4,59.2,44.7,34.8,100,68,30,30.01,29.89,20,3,22,0.08
2013-4-1,63.9,48.7,39.0,47.5,39.1,29.8,100,72,42,30.18,29.98,22,6,23,0.01
2013-4-2,43.0,37.8,35.8,38.5,36.3,28.5,100,95,57,30.27,30.18,19,8,20,0.43
2013-4-3,51.1,43.2,36.3,34.5,27.0,23.4,92,55,38,30.24,30.15,22,8,23,0.12
2013-4-4,59.2,47.4,38.3,40.9,34.2,28.1,95,65,36,30.15,30.06,16,3,17,0.05
2013-4-5,69.6,53.0,32.5,43.9,34.0,28.6,100,54,29,30.21,30.01,16,4,17,0.00
2013-4-6,72.9,62.9,54.3,46.5,41.3,31.7,61,46,33,30.01,29.83,32,10,34,0.04
2013-4-7,74.8,63.8,50.4,60.3,52.8,43.5,100,69,46,29.95,29.77,29,7,30,0.04
2013-4-8,70.9,65.9,60.3,62.4,58.7,54.4,100,78,62,29.83,29.74,30,8,31,0.18
2013-4-9,78.8,71.2,64.4,64.2,58.8,55.8,82,66,48,29.80,29.74,27,9,28,0.00
2013-4-10,73.8,47.0,36.7,65.8,45.6,36.5,100,96,62,29.89,29.77,28,8,29,0.70
2013-4-11,51.6,40.4,33.3,36.7,32.5,26.5,100,77,42,29.89,29.77,26,10,27,0.04
2013-4-12,56.5,45.1,33.6,35.6,31.8,26.8,94,62,41,30.03,29.83,22,6,26,0.00
2013-4-13,68.9,55.0,40.5,46.4,39.6,31.6,84,58,37,30.06,29.83,21,5,22,0.01
2013-4-14,77.4,67.6,56.7,50.9,45.8,42.0,65,47,32,29.83,29.56,30,9,31,0.00
2013-4-15,79.0,67.4,56.8,64.6,57.7,49.3,92,72,54,29.86,29.71,24,7,26,0.00
2013-4-16,80.2,62.9,52.0,63.5,57.5,51.8,100,85,53,30.01,29.86,17,6,18,0.00
2013-4-17,81.9,71.5,58.1,70.9,63.1,57.8,100,77,51,29.98,29.68,28,8,29,0.00
2013-4-18,74.8,49.2,37.8,67.7,45.0,27.4,100,86,63,30.00,28.20,53,12,55,3.82
2013-4-19,55.2,43.1,32.7,29.7,27.3,24.4,78,55,37,30.09,30.00,32,10,33,0.00
2013-4-20,67.6,52.6,35.1,43.2,33.8,28.2,94,53,30,30.21,30.09,16,4,17,0.00
2013-4-21,68.4,59.2,50.2,41.1,36.7,34.2,62,44,30,30.27,30.12,21,6,22,0.00
2013-4-22,71.6,60.5,43.7,43.4,39.0,33.6,75,47,32,30.21,29.91,22,6,23,0.00
2013-4-23,62.2,50.5,36.1,57.3,45.2,36.0,100,85,51,30.12,29.83,16,5,17,0.13
2013-4-24,55.0,42.8,34.3,39.7,32.0,24.8,100,71,37,30.33,30.12,19,5,20,0.00
2013-4-25,69.1,52.5,30.0,40.3,32.3,24.9,98,51,26,30.36,30.21,13,3,14,0.00
2013-4-26,59.0,53.1,48.0,51.7,44.0,31.4,100,76,36,30.33,30.12,69,7,72,0.67
2013-4-27,57.2,53.2,50.2,57.2,53.2,50.2,100,100,100,30.12,29.94,21,4,22,0.63
2013-4-28,74.8,61.0,49.5,57.7,50.8,46.3,100,74,41,30.03,29.88,16,3,17,0.00
2013-4-29,82.6,69.2,51.4,61.2,53.6,48.1,100,62,30,29.94,29.80,24,6,26,0.00
2013-4-30,80.8,71.0,56.5,62.7,49.9,42.0,98,51,28,29.88,29.83,24,6,25,0.00
2013-5-1,82.4,70.7,60.3,63.7,55.9,46.6,87,61,40,30.09,29.88,19,5,20,0.00
2013-5-2,63.1,48.6,33.3,61.7,47.2,33.3,100,95,83,30.27,30.06,21,5,22,0.29
2013-5-3,45.5,37.5,32.7,43.9,34.6,27.3,100,91,51,30.24,29.94,21,5,22,0.39
2013-5-4,45.1,39.2,34.3,43.5,37.1,33.8,100,93,74,30.00,29.85,16,5,17,0.20
2013-5-5,61.2,48.4,35.6,49.8,42.6,35.4,100,83,50,30.09,30.00,19,4,20,0.00
2013-5-6,64.8,54.0,47.7,57.7,51.1,46.6,100,91,62,30.12,30.03,14,4,14,0.12
2013-5-7,76.5,61.6,43.2,65.1,49.5,43.2,100,70,36,30.12,30.00,15,2,16,0.00
2013-5-8,79.0,66.8,54.0,61.4,54.6,50.1,96,68,40,30.09,29.91,20,3,21,0.00
2013-5-9,76.3,64.8,58.5,68.0,60.1,55.3,100,87,53,30.00,29.91,35,6,37,3.51
2013-5-10,70.0,61.9,52.9,67.1,59.1,51.6,100,92,59,30.09,29.91,19,4,20,1.81
2013-5-11,72.7,59.7,46.8,64.2,46.7,31.7,100,68,30,30.21,30.06,23,3,24,0.00
2013-5-12,68.9,54.3,37.6,49.5,37.5,31.6,99,57,30,30.30,30.15,16,2,17,1.81
2013-5-13,79.7,65.5,48.4,54.4,48.7,41.5,87,58,34,30.18,30.06,24,6,26,1.81
2013-5-14,86.2,73.7,61.3,56.7,50.8,46.6,63,46,26,30.09,29.97,25,9,26,1.81
2013-5-15,75.2,68.3,64.0,67.6,60.3,47.2,100,78,49,30.03,29.88,23,7,24,0.20
2013-5-16,68.9,64.7,61.5,67.5,63.9,61.5,100,97,87,29.91,29.83,12,3,13,1.81
2013-5-17,82.0,70.4,56.5,70.5,62.4,56.3,100,79,50,29.94,29.88,11,2,11,1.81
2013-5-18,84.0,75.4,64.8,75.7,70.8,64.8,100,86,67,29.94,29.83,22,5,23,0.00
2013-5-19,87.3,78.4,71.2,73.2,65.4,57.2,100,69,38,29.88,28.29,30,8,31,11.72
2013-5-20,77.9,71.7,60.8,72.3,67.5,57.7,100,87,71,29.83,28.38,43,7,45,0.64
2013-5-21,64.2,60.8,58.1,64.2,60.8,58.1,100,100,100,29.92,29.59,32,7,33,0.96
2013-5-22,74.3,64.2,53.6,65.8,56.5,53.0,100,79,49,29.95,29.80,22,6,24,0.00
2013-5-23,75.4,64.5,54.7,64.8,58.0,54.7,100,81,54,30.15,28.61,15,3,16,1.54
2013-5-24,77.9,67.2,56.8,59.1,56.2,52.6,99,70,50,30.27,30.15,18,6,18,0.00
2013-5-25,82.8,72.6,60.1,64.7,58.8,49.2,83,63,49,30.21,30.06,19,6,20,0.00
2013-5-26,82.4,74.1,63.3,68.7,63.3,56.7,100,71,49,30.12,29.97,24,6,26,0.00
2013-5-27,83.3,76.0,68.9,70.6,65.4,57.2,100,71,46,30.00,29.82,27,9,28,0.00
2013-5-28,82.8,75.8,71.6,69.0,64.0,59.5,90,68,49,29.88,29.76,29,10,30,0.00
2013-5-29,79.5,75.4,70.3,66.8,64.3,61.8,87,69,57,29.88,29.76,24,8,26,0.00
2013-5-30,78.4,70.6,62.6,71.1,65.8,60.7,100,86,61,29.88,29.73,37,8,39,0.91
2013-5-31,84.9,75.5,62.6,73.6,70.1,62.6,100,85,61,29.82,29.67,32,8,34,0.04
2013-6-1,77.4,70.3,59.9,74.3,65.1,55.6,100,85,59,30.00,29.67,49,7,52,0.47
2013-6-2,67.6,61.2,54.1,64.5,56.6,54.1,100,86,65,30.06,29.97,14,3,14,0.08
2013-6-3,79.2,65.5,47.8,63.0,55.3,47.8,100,73,41,30.06,29.88,11,3,11,0.00
2013-6-4,77.7,69.3,63.1,68.8,62.9,57.7,95,81,62,30.00,29.88,18,4,19,0.00
2013-6-5,78.3,69.2,63.3,74.7,65.1,62.3,100,88,63,30.03,29.85,22,6,23,0.35
2013-6-6,74.3,65.7,57.4,71.8,60.5,54.4,100,85,58,29.94,29.88,16,3,17,0.00
2013-6-7,78.3,65.0,53.2,68.0,54.0,49.6,100,72,40,30.00,29.91,13,2,16,0.00
2013-6-8,81.1,68.3,52.5,67.3,55.6,51.7,100,68,41,29.94,29.85,14,3,14,0.00
2013-6-9,81.9,73.0,65.5,70.5,60.0,53.6,99,66,40,29.91,29.85,20,5,21,0.01
2013-6-10,90.7,78.3,65.3,70.3,64.3,58.5,91,65,37,29.94,29.85,24,8,26,0.00
2013-6-11,91.8,82.3,70.3,70.8,66.1,59.8,91,61,37,30.00,29.91,24,7,26,0.00
2013-6-12,89.8,82.0,73.2,73.1,68.8,62.8,96,67,42,30.00,29.91,32,11,33,0.00
2013-6-13,90.3,79.9,71.1,76.5,68.1,59.7,100,70,38,30.03,29.94,13,4,14,0.00
2013-6-14,91.8,80.7,70.3,74.5,70.8,67.0,95,74,50,30.03,29.94,14,5,15,0.00
2013-6-15,89.2,77.3,69.4,73.1,69.1,64.8,100,77,53,30.03,29.94,20,4,21,0.23
2013-6-16,87.8,76.4,69.3,74.7,69.6,62.5,100,81,54,30.00,29.91,19,4,20,0.04
2013-6-17,72.1,69.2,65.3,72.2,68.8,65.3,100,99,86,29.97,29.88,15,3,16,0.39
2013-6-18,84.9,72.3,62.4,77.4,64.4,56.2,100,80,40,30.03,29.94,16,2,17,0.00
2013-6-19,86.9,74.3,62.1,74.7,63.7,57.7,100,74,40,30.06,29.97,16,2,17,0.00
2013-6-20,89.4,78.6,68.4,71.9,68.0,63.8,98,72,49,30.09,30.00,19,5,20,0.00
2013-6-21,90.3,81.7,73.9,75.0,71.6,65.7,99,74,48,30.09,30.00,21,6,22,0.00
2013-6-22,88.5,80.8,72.3,74.5,70.4,64.3,99,73,46,30.06,29.94,21,6,22,0.00
2013-6-23,89.6,80.5,71.8,75.4,70.0,62.8,100,73,45,30.00,29.91,23,6,24,0.00
2013-6-24,89.4,80.7,73.8,73.8,69.2,62.8,92,70,44,30.06,29.94,22,6,23,0.00
2013-6-25,88.0,80.4,75.4,73.7,69.3,62.9,91,70,45,29.97,29.85,26,8,27,0.00
2013-6-26,92.5,81.9,75.4,78.8,72.9,69.5,98,76,51,29.94,29.85,24,7,26,0.01
2013-6-27,96.6,85.1,71.2,81.0,72.8,66.8,100,71,40,29.97,29.88,13,4,14,0.00
2013-6-28,90.9,82.3,70.9,77.4,68.3,57.8,95,66,37,29.94,29.85,16,4,17,0.00
2013-6-29,86.0,74.5,62.2,63.2,54.6,47.3,95,54,28,29.91,29.79,26,4,27,0.00
2013-6-30,79.7,70.6,60.4,64.6,58.4,51.6,100,67,46,29.97,29.85,18,4,19,0.00
2013-7-1,82.6,70.1,59.4,67.2,55.0,43.5,100,65,29,30.03,29.97,20,4,21,0.00
2013-7-2,81.5,69.0,54.3,63.9,52.1,45.1,100,60,29,30.09,30.03,16,3,17,0.00
2013-7-3,84.4,67.8,54.0,65.7,52.6,44.5,100,65,26,30.12,29.97,18,2,19,0.00
2013-7-4,87.4,74.8,59.4,62.8,54.8,49.6,92,54,29,30.06,29.97,15,4,15,0.00
2013-7-5,89.2,79.0,59.9,65.8,56.1,50.7,95,49,28,30.03,29.94,17,4,18,0.00
2013-7-6,90.0,78.0,67.1,66.2,58.9,53.2,87,54,32,30.03,29.94,14,4,14,0.01
2013-7-7,91.4,80.8,70.7,69.9,63.3,54.6,91,58,30,30.06,29.97,16,4,17,0.00
2013-7-8,93.0,82.7,70.2,73.4,65.5,60.5,92,59,37,30.12,30.03,16,4,17,0.00
2013-7-9,94.1,81.4,73.6,73.9,68.7,62.7,92,68,37,30.09,29.97,23,4,24,0.00
2013-7-10,99.1,85.6,72.7,71.6,66.6,62.5,87,56,33,30.03,29.91,19,4,20,0.01
2013-7-11,96.4,82.4,70.0,77.2,67.2,53.9,100,65,28,30.03,29.94,14,3,17,0.01
2013-7-12,93.7,80.6,71.4,67.4,61.3,54.8,73,53,37,30.06,29.97,15,5,16,0.00
2013-7-13,89.4,78.2,67.6,60.0,56.3,52.8,75,49,32,30.06,29.97,12,3,13,0.00
2013-7-14,88.0,78.1,64.8,63.9,55.5,47.1,86,48,25,30.06,29.97,20,5,21,0.00
2013-7-15,91.8,78.3,70.5,70.9,65.2,58.6,92,67,37,30.18,30.03,19,5,26,0.00
2013-7-16,88.0,76.6,68.5,77.4,70.4,66.2,100,83,51,30.27,30.15,16,2,17,0.04
2013-7-17,93.4,79.0,68.7,78.3,67.7,56.3,100,73,30,30.32,30.18,15,2,15,0.00
2013-7-18,94.8,80.5,68.0,78.9,67.0,59.2,100,68,36,30.21,30.03,19,2,20,0.00
2013-7-19,94.8,80.9,71.2,72.6,67.4,62.0,90,66,36,30.06,29.94,16,4,17,0.00
2013-7-20,94.6,79.0,68.5,74.3,69.4,63.7,100,77,38,29.97,29.85,22,6,23,0.05
2013-7-21,82.9,73.9,68.5,78.4,72.9,68.5,100,97,81,29.97,29.85,14,1,14,0.25
2013-7-22,89.4,75.7,66.4,75.8,69.3,64.2,100,82,50,30.00,29.85,32,5,33,0.51
2013-7-23,96.6,84.2,70.3,77.0,72.3,67.4,100,70,41,29.94,29.79,27,7,30,0.16
2013-7-24,85.6,75.1,66.7,75.3,69.3,66.5,100,85,55,30.03,29.88,27,4,28,0.67
2013-7-25,86.5,75.1,65.7,75.6,68.6,62.2,100,83,50,30.09,30.03,11,2,11,0.00
2013-7-26,74.1,71.0,64.2,72.4,70.2,64.2,100,97,90,30.06,29.97,10,2,12,0.71
2013-7-27,82.0,70.9,62.6,73.8,63.2,56.3,100,81,44,30.06,29.97,14,2,14,0.00
2013-7-28,80.8,69.8,61.7,67.1,63.9,58.9,100,83,54,30.03,29.97,16,3,17,0.00
2013-7-29,85.8,76.9,68.0,76.0,70.4,66.2,100,82,59,30.06,29.97,19,6,20,0.00
2013-7-30,87.1,77.1,69.6,78.6,73.1,69.6,100,89,62,30.06,30.00,16,4,18,2.21
2013-7-31,89.1,78.5,71.4,82.4,74.7,70.6,100,90,58,30.06,30.00,17,2,18,0.00
2013-8-1,88.9,76.7,65.1,75.2,66.5,57.2,100,75,38,30.09,29.97,10,3,11,0.00
2013-8-2,87.8,77.2,70.7,78.2,72.7,69.0,100,86,66,30.00,29.88,16,4,17,0.00
2013-8-3,87.1,77.3,67.3,79.0,73.6,67.3,100,90,61,30.09,29.91,32,4,34,3.00
2013-8-4,76.8,73.9,71.4,76.7,73.7,71.4,100,99,94,30.12,30.00,15,3,15,0.14
2013-8-5,91.8,80.2,71.8,79.2,74.8,71.8,100,86,57,30.03,29.85,19,4,20,0.04
2013-8-6,92.8,81.9,72.7,80.2,74.9,70.2,100,81,51,29.91,29.82,15,4,16,0.04
2013-8-7,91.8,80.4,73.8,80.9,76.0,71.9,100,88,58,29.97,29.82,15,4,16,0.00
2013-8-8,83.1,74.7,66.9,77.7,72.6,66.9,100,94,73,30.00,29.85,24,4,33,3.90
2013-8-9,84.4,75.4,69.6,77.4,72.2,69.4,100,91,66,30.03,29.91,16,2,17,0.11
2013-8-10,84.2,75.4,68.9,73.6,70.5,67.0,100,86,58,30.09,30.03,18,4,19,0.00
2013-8-11,88.7,77.0,70.3,77.6,73.3,69.8,100,90,55,30.09,30.00,11,2,11,0.00
2013-8-12,82.8,75.1,70.3,80.5,73.3,70.2,100,94,74,30.09,29.97,15,2,16,0.24
2013-8-13,76.6,71.0,65.5,76.7,70.8,65.5,100,99,81,30.06,29.97,18,1,19,0.14
2013-8-14,78.8,69.2,60.8,67.8,61.1,54.0,100,79,45,30.15,30.06,17,4,18,0.00
2013-8-15,79.0,67.2,56.8,62.4,55.9,52.0,100,71,41,30.12,30.00,13,2,14,0.00
2013-8-16,78.6,67.7,62.1,62.1,58.5,54.5,91,74,46,30.09,30.03,12,2,13,0.00
2013-8-17,79.5,64.0,54.1,68.2,58.6,54.1,100,86,46,30.15,30.06,14,2,14,0.00
2013-8-18,83.3,70.4,58.6,72.0,61.6,55.2,100,78,40,30.15,30.06,11,2,12,0.00
2013-8-19,86.2,72.9,62.4,73.2,63.1,53.8,100,76,38,30.12,30.00,10,2,11,0.00
2013-8-20,86.9,73.9,63.3,73.8,64.2,58.2,100,76,40,30.09,30.03,12,2,13,0.00
2013-8-21,89.4,76.5,63.9,73.8,65.2,60.4,100,72,38,30.12,30.03,16,3,17,0.00
2013-8-22,92.3,78.9,65.7,74.8,67.9,62.9,100,72,38,30.12,30.03,13,2,14,0.00
2013-8-23,92.1,80.4,66.7,79.3,68.1,57.2,100,71,33,30.09,30.00,13,2,14,0.00
2013-8-24,90.5,80.6,71.6,75.6,70.0,62.2,100,73,42,30.15,30.06,16,3,17,0.00
2013-8-25,92.3,80.9,70.2,77.2,70.6,63.9,100,74,40,30.21,30.12,11,2,11,0.00
2013-8-26,91.6,79.3,70.7,76.5,70.8,64.7,100,78,44,30.21,30.09,14,3,14,0.00
2013-8-27,89.6,76.5,65.1,74.5,66.6,60.5,100,76,40,30.12,30.03,16,3,17,0.00
2013-8-28,91.4,77.7,66.6,75.9,68.7,64.8,100,78,42,30.09,30.00,17,4,18,0.00
2013-8-29,94.3,79.6,68.4,79.5,69.6,63.5,100,76,37,30.09,30.00,16,3,17,0.00
2013-8-30,94.3,81.6,70.2,78.8,70.0,63.4,100,73,37,30.03,29.88,16,4,17,0.00
2013-8-31,96.4,83.5,72.0,73.9,68.7,63.0,100,66,34,29.94,29.82,19,4,20,0.00
2013-9-1,91.0,79.1,72.1,75.7,69.8,61.8,100,75,38,29.91,29.82,18,3,19,0.02
2013-9-2,86.2,73.2,63.9,72.2,65.6,57.9,100,81,41,30.00,29.91,15,3,16,0.00
2013-9-3,88.2,71.6,58.3,74.0,60.1,51.8,100,74,30,30.06,29.97,15,2,15,0.00
2013-9-4,89.1,73.2,60.8,71.8,60.9,54.8,100,71,33,30.15,30.03,14,2,14,0.00
2013-9-5,88.7,74.6,62.4,69.7,61.1,53.0,100,68,30,30.18,30.09,14,2,14,0.00
2013-9-6,89.2,74.7,62.2,69.2,62.0,57.6,100,70,37,30.15,30.03,11,2,11,0.00
2013-9-7,94.1,79.7,65.8,73.1,64.3,57.7,100,64,30,30.06,29.94,14,3,15,0.00
2013-9-8,95.0,79.2,66.9,72.9,65.6,61.8,100,68,36,30.00,29.91,16,3,17,0.00
2013-9-9,94.3,80.3,66.4,71.7,63.7,54.0,100,62,26,30.03,29.94,16,3,17,0.00
2013-9-10,94.1,79.5,65.1,70.5,61.6,50.8,100,60,24,30.12,30.00,18,3,18,0.00
2013-9-11,92.8,79.8,67.6,78.9,66.8,60.4,100,70,37,30.15,30.06,11,2,11,0.00
2013-9-12,92.5,78.4,67.6,78.1,68.3,62.1,100,75,40,30.12,30.00,18,3,19,0.00
2013-9-13,83.8,73.3,63.0,69.8,55.2,45.5,91,57,29,30.09,29.97,19,6,20,0.00
2013-9-14,81.7,67.9,55.6,59.4,50.7,43.6,99,59,28,30.09,29.97,14,3,14,0.00
2013-9-15,88.0,74.5,60.6,62.4,55.6,49.3,69,53,38,30.06,30.00,19,4,20,0.04
2013-9-16,76.8,71.7,68.9,74.2,68.2,60.5,100,89,67,30.18,30.03,14,2,14,0.12
2013-9-17,84.9,74.1,67.1,71.7,67.6,62.7,100,83,51,30.12,30.00,12,4,12,0.00
2013-9-18,88.2,78.3,69.6,69.2,65.9,61.1,88,67,42,30.03,29.94,21,4,22,0.00
2013-9-19,90.3,78.9,70.7,72.9,67.1,60.9,100,70,38,30.00,29.88,25,5,26,0.24
2013-9-20,71.8,65.9,55.6,71.8,64.1,54.4,100,95,62,29.97,29.91,18,3,19,2.09
2013-9-21,76.6,60.2,46.6,63.6,50.0,43.8,100,76,32,30.00,29.91,17,3,18,0.00
2013-9-22,73.0,56.4,47.3,57.4,49.2,45.1,100,81,41,29.97,29.85,10,1,11,0.00
2013-9-23,79.2,63.6,52.7,57.2,52.8,47.3,98,71,33,29.91,29.79,15,3,16,0.00
2013-9-24,76.8,67.3,59.2,61.7,56.5,53.1,92,70,48,29.88,29.82,21,6,22,0.00
2013-9-25,81.5,65.2,53.4,68.7,58.7,53.4,100,83,45,29.88,29.82,14,2,14,0.00
2013-9-26,85.8,67.6,60.6,63.3,60.0,55.4,98,80,38,29.94,29.85,10,4,12,0.00
2013-9-27,84.2,73.1,63.0,67.9,60.1,54.1,100,67,40,30.00,29.91,19,4,20,0.00
2013-9-28,79.7,69.5,61.0,68.9,63.6,59.4,100,83,58,30.03,29.88,29,5,30,1.26
2013-9-29,77.2,64.2,54.3,61.0,56.5,51.7,100,80,42,30.06,29.91,15,3,16,0.00
2013-9-30,80.4,69.0,59.0,67.2,62.1,58.7,100,81,50,29.94,29.85,15,2,16,0.00
2013-10-1,84.2,74.1,63.5,73.4,66.5,63.1,100,80,50,30.00,29.88,19,3,20,0.00
2013-10-2,81.9,72.6,66.4,74.1,69.0,65.2,100,90,59,30.03,29.91,16,3,17,0.00
2013-10-3,83.5,73.9,67.1,73.2,68.4,64.2,100,85,55,29.94,29.82,22,5,23,0.00
2013-10-4,82.6,72.1,69.6,71.3,69.0,61.8,100,91,54,29.91,29.85,22,4,23,0.00
2013-10-5,72.9,57.1,46.0,72.9,56.9,46.0,100,99,87,30.03,29.88,22,4,23,1.80
2013-10-6,61.9,51.8,42.1,50.7,44.0,39.5,100,78,48,30.00,29.94,21,7,26,0.04
2013-10-7,71.8,55.4,40.6,57.6,45.6,40.6,100,76,36,30.12,30.00,14,2,14,0.00
2013-10-8,73.0,57.9,46.2,58.6,48.3,43.3,100,75,37,30.15,30.03,15,2,16,0.00
2013-10-9,76.1,60.0,46.9,55.6,48.9,45.1,100,71,37,30.09,30.03,11,2,12,0.00
2013-10-10,76.8,61.5,49.3,62.0,53.7,48.5,100,79,42,30.09,29.91,16,3,17,0.00
2013-10-11,75.4,66.1,57.2,67.2,61.9,53.8,100,87,65,29.94,29.85,21,5,22,0.00
2013-10-12,69.8,65.6,61.3,69.8,64.4,55.9,100,96,82,30.15,29.88,17,4,23,0.54
2013-10-13,72.5,63.2,57.7,58.5,50.9,45.1,94,66,45,30.29,30.15,16,4,17,0.00
2013-10-14,67.3,61.8,58.8,64.4,55.8,45.3,100,82,61,30.24,29.94,22,5,23,0.19
2013-10-15,65.3,58.9,51.3,65.3,58.7,51.0,100,99,94,30.03,29.88,13,3,14,0.09
2013-10-16,61.2,51.6,41.2,51.6,44.0,39.7,100,77,50,30.09,29.97,15,3,16,0.00
2013-10-17,63.1,49.4,40.3,55.8,44.6,40.1,100,86,48,30.03,29.94,16,3,17,0.00
2013-10-18,61.5,48.8,39.2,56.3,45.6,39.2,100,90,63,30.03,29.94,14,2,14,0.18
2013-10-19,58.1,44.8,35.8,47.3,38.8,32.7,100,83,42,30.12,30.00,17,5,18,0.04
2013-10-20,66.9,50.8,37.4,47.8,39.8,34.8,100,70,33,30.00,29.85,19,4,20,0.04
2013-10-21,56.7,48.6,37.0,54.2,43.8,35.7,100,84,57,30.09,29.94,14,2,15,0.04
2013-10-22,65.7,49.0,36.0,48.7,40.0,35.9,100,76,45,32.45,30.06,24,5,26,0.04
2013-10-23,61.9,46.9,34.7,46.2,38.1,33.5,100,75,37,30.06,16.77,11,2,11,0.04
2013-10-24,55.0,44.2,32.9,44.5,35.7,25.5,100,76,38,30.40,16.77,19,4,20,0.04
2013-10-25,58.6,43.6,31.6,36.8,30.1,26.9,95,63,34,30.49,30.22,19,3,20,0.04
2013-10-26,63.7,51.9,43.9,55.7,43.6,31.7,96,74,62,30.22,30.13,19,6,20,0.04
2013-10-27,65.1,50.4,39.7,56.5,45.6,35.0,100,88,33,30.13,30.01,11,2,12,0.04
2013-10-28,66.6,59.4,52.5,62.8,54.3,50.0,100,85,57,30.19,30.07,18,4,18,0.00
2013-10-29,69.1,65.0,57.4,67.5,64.4,57.1,100,98,91,30.16,30.01,20,7,23,0.08
2013-10-30,67.5,64.8,61.3,67.5,64.8,61.3,100,100,100,30.07,29.84,19,4,20,1.77
2013-10-31,71.8,61.3,48.2,67.8,58.6,45.4,100,93,42,29.84,29.54,38,8,40,0.31
2013-11-1,67.1,51.7,41.0,56.7,44.4,36.1,100,81,36,30.04,29.81,19,4,20,0.00
2013-11-2,56.3,45.7,36.3,45.2,38.2,31.1,96,77,48,30.25,30.01,19,4,20,0.00
2013-11-3,60.6,45.6,33.1,46.0,37.3,33.1,100,77,40,30.22,30.04,20,4,21,0.00
2013-11-4,58.3,54.6,51.3,55.3,46.0,39.6,100,74,62,30.19,30.04,20,6,21,0.00
2013-11-5,62.6,57.6,53.8,62.6,57.6,53.8,100,100,100,30.16,29.98,16,5,17,0.55
2013-11-6,62.2,45.2,32.7,62.2,44.5,32.1,100,97,78,30.37,29.93,32,5,33,0.31
2013-11-7,62.2,41.5,28.4,51.7,34.9,28.4,100,82,34,30.46,30.34,17,2,18,0.00
2013-11-8,63.5,47.4,34.5,47.8,36.7,33.3,100,73,33,30.37,30.10,19,5,22,0.00
2013-11-9,63.7,53.2,43.5,49.4,43.0,36.8,98,71,45,30.34,30.13,15,3,17,0.00
2013-11-10,67.6,54.9,44.8,54.0,43.1,37.5,100,69,36,30.40,30.25,14,2,15,0.00
2013-11-11,66.2,53.5,33.1,54.6,46.5,20.7,100,78,57,30.63,30.19,26,6,27,0.00
2013-11-12,41.7,31.2,20.8,41.7,18.7,11.4,100,62,38,30.72,30.43,26,6,27,0.00
2013-11-13,49.6,33.9,19.8,24.4,19.0,14.2,90,57,36,30.66,30.25,15,4,15,0.00
2013-11-14,53.1,42.8,23.7,33.2,23.8,14.9,75,48,34,30.31,30.01,22,5,23,0.00
2013-11-15,60.6,51.8,42.6,59.8,46.7,31.3,100,84,58,30.07,29.81,21,6,22,0.06
2013-11-16,70.2,64.6,52.7,67.9,61.4,52.7,100,90,67,29.90,29.60,29,11,36,0.01
2013-11-17,72.3,62.6,41.2,67.9,41.1,19.9,95,50,26,30.22,29.57,41,11,43,0.00
2013-11-18,63.9,50.1,35.1,39.8,28.2,19.9,87,46,24,30.28,30.07,19,3,20,0.00
2013-11-19,59.4,51.0,41.2,32.3,24.6,15.6,55,37,25,30.25,30.01,22,6,23,0.00
2013-11-20,59.9,53.6,43.9,49.3,28.1,15.8,100,39,25,30.07,29.93,22,7,23,0.43
2013-11-21,57.6,48.4,32.2,52.0,47.4,32.2,100,97,48,30.40,30.01,19,5,20,0.51
2013-11-22,41.7,32.2,30.7,41.7,32.2,30.2,100,100,100,30.55,30.28,20,3,21,0.00
2013-11-23,38.5,30.0,18.0,31.3,21.0,9.9,100,72,42,30.63,30.49,16,5,20,0.00
2013-11-24,33.1,26.7,18.0,16.0,13.6,9.3,71,58,48,30.63,30.25,16,6,17,0.00
2013-11-25,35.8,33.4,29.8,31.8,26.3,14.8,94,76,48,30.34,30.16,16,4,17,0.01
2013-11-26,46.0,35.9,25.9,32.0,27.7,13.0,94,74,46,30.31,30.13,22,6,23,0.00
2013-11-27,37.9,26.7,17.6,15.6,11.4,7.1,70,53,38,30.43,30.28,24,4,26,0.00
2013-11-28,52.7,36.4,23.2,28.0,19.6,10.6,78,51,38,30.46,30.28,23,6,24,0.01
2013-11-29,55.6,37.5,23.7,35.5,23.8,15.9,100,62,30,30.49,30.31,15,2,16,0.00
2013-11-30,57.0,45.1,33.8,45.5,34.2,20.6,100,66,54,30.34,30.13,21,5,22,0.00
2013-12-1,55.0,46.9,39.2,54.9,46.7,39.2,100,99,95,30.16,29.90,11,1,12,0.00
2013-12-2,64.2,48.4,38.8,57.0,44.4,38.7,100,88,51,29.90,29.69,13,2,14,0.00
2013-12-3,68.9,52.0,37.0,55.6,45.9,37.0,100,84,37,29.72,29.57,16,4,17,0.00
2013-12-4,60.4,46.7,32.0,55.0,43.7,32.0,100,91,57,29.98,29.57,32,7,33,0.00
2013-12-5,32.0,24.0,19.6,32.0,20.2,12.8,100,86,59,30.28,29.98,20,7,21,0.00
2013-12-6,20.1,17.9,13.5,19.9,16.1,5.5,100,93,69,30.55,30.22,19,7,20,0.00
2013-12-7,23.7,13.0,4.8,11.2,3.6,-2.8,73,66,51,30.60,30.31,16,6,17,0.00
2013-12-8,28.2,24.8,20.8,28.2,22.0,9.6,100,90,59,30.31,30.01,19,6,20,0.00
2013-12-9,27.0,23.5,20.1,27.0,18.0,11.3,100,81,59,30.34,30.16,16,5,17,0.00
2013-12-10,33.4,21.3,12.0,21.0,14.6,9.1,100,77,48,30.43,30.28,16,5,17,0.00
2013-12-11,36.9,24.9,15.1,30.5,17.4,10.1,100,75,51,30.60,30.28,16,3,17,0.00
2013-12-12,40.5,26.2,13.1,22.2,15.4,6.8,91,66,42,30.60,30.28,16,4,17,0.04
2013-12-13,36.7,34.1,28.2,36.3,30.1,20.0,100,86,65,30.28,29.87,18,4,19,0.67
2013-12-14,35.8,31.8,23.0,35.8,31.5,21.5,100,99,92,30.25,29.84,19,7,21,0.24
2013-12-15,49.6,31.2,19.6,35.3,26.0,19.5,100,84,50,30.28,30.13,16,3,17,0.00
2013-12-16,61.3,46.1,35.4,36.5,31.5,27.7,81,58,34,30.16,30.07,20,7,21,0.24
2013-12-17,59.7,42.7,31.1,46.7,31.1,22.0,100,69,33,30.31,30.16,16,3,17,0.24
2013-12-18,61.7,45.7,27.9,38.1,31.9,23.8,94,62,36,30.31,29.98,29,6,31,0.24
2013-12-19,61.2,56.2,52.0,58.4,49.8,37.5,95,80,54,29.98,29.75,28,10,30,0.24
2013-12-20,63.0,44.7,32.0,61.2,43.8,32.0,100,97,82,29.93,29.75,32,6,33,0.24
2013-12-21,39.0,35.2,31.8,39.0,35.2,31.8,100,100,100,29.84,29.51,28,4,29,1.16
2013-12-22,33.3,29.0,25.0,33.3,28.7,23.8,100,99,94,30.34,29.75,22,8,23,0.00
2013-12-23,28.9,22.9,14.7,23.6,20.3,13.1,95,90,69,30.55,30.34,13,4,14,0.00
2013-12-24,42.3,24.4,14.2,25.7,19.5,13.1,100,84,51,30.55,30.25,18,4,19,0.00
2013-12-25,43.0,29.9,22.8,36.1,26.3,21.0,100,87,69,30.40,30.25,18,2,18,0.00
2013-12-26,50.7,31.2,20.1,38.3,24.6,20.1,100,80,42,30.40,30.28,16,3,17,0.00
2013-12-27,56.7,35.2,24.6,37.6,25.8,19.8,100,72,37,30.43,30.31,18,2,18,0.00
2013-12-28,55.4,39.3,25.2,38.4,28.1,21.5,99,67,37,30.31,29.96,16,4,17,0.00
2013-12-29,42.4,32.6,19.9,40.4,27.3,12.6,95,81,69,30.25,29.96,18,6,18,0.00
2013-12-30,37.4,23.7,13.5,22.4,15.7,9.7,87,72,53,30.34,30.19,16,5,17,0.00
2013-12-31,54.5,35.2,19.0,35.8,23.2,16.9,100,67,36,30.37,30.16,24,4,26,0.00
2014-1-1,54.5,40.2,22.6,34.2,25.8,18.0,91,58,37,30.16,29.89,20,6,21,0.00
2014-1-2,26.1,16.8,10.0,20.3,9.6,2.6,94,74,54,30.48,30.13,22,5,23,0.00